TIMESTAMP,CO2_1_1_1,H2O_1_1_1,TAU_1_1_1,TAU_SSITC_TEST_1_1_1,H_1_1_1,H_SSITC_TEST_1_1_1,LE_1_1_1,LE_SSITC_TEST_1_1_1,FC_1_1_1,FC_SSITC_TEST_1_1_1,WD_0_0_1,WS_0_0_1,WS_MAX_0_0_1,U_SIGMA_0_0_1,V_SIGMA_0_0_1,W_SIGMA_0_0_1,USTAR_0_0_1,MO_LENGTH_0_0_1,ZL_0_0_1,FETCH_MAX_0_0_1,FETCH_70_0_0_1,FETCH_80_0_0_1,FETCH_90_0_0_1,PA_0_0_1,RH_0_0_1,TA_0_0_1,VPD_0_0_1,T_SONIC_0_0_1,T_SONIC_SIGMA_0_0_1
[yyyymmddHHMMSS],[mmolCO2 mol-1],[mmolH2O mol-1],[kg m-1 s-2],[#],[W m-2],[#],[W m-2],[#],[umolCO2 m-2 s-1],[#],[Decimal degrees],[m s-1],[m s-1],[m s-1],[m s-1],[m s-1],[m s-1],[m],[#],[m],[m],[m],[m],[kPa],[%],[deg C],[hPa],[deg C],[deg C]
20210308003000,423.02926052632574,5.4352725335450929,1.7757387209317568,0,-50.141010296543307,0,10.938838041922684,0,1.0632773131466442,0,146.25967003372708,4.8262431586840204,14.931588745287788,2.3788079892632568,1.6930194612558376,1.3563794146247181,1.2244551378302071,3053.2542718539921,6.2228685554127959E-003,115.37301714401396,210.93867167580092,252.43971550745817,316.02456822896210,94.026259807749099,68.325835152207148,2.8568965517241622,2.3697754135767077,2.5471947721404149,0.14119452467078339
20210308010000,423.68215198979937,5.4578548962549673,1.3784023196145123,0,-47.987934654075083,0,6.9102476261731978,0,0.82012116283836323,1,147.24840499542401,3.9861723844920847,13.201476055998560,2.1164677784618222,1.6042919008383274,1.2022360348208430,1.0779180823366830,2176.8567419467790,8.7281811585856409E-003,114.74445641985525,209.78946220287784,251.06440528056413,314.30284302513923,94.049939323784727,70.528634598283844,2.4723333333333244,2.1455160371343722,2.1605167329576034,0.12786334117719800
20210308013000,424.57820752778241,5.4434905116254013,0.85672038667872896,0,-26.214175907868121,0,3.9470337597960112,0,-0.24356077666874676,2,144.57858215363132,3.7420048083188631,11.450742398379555,1.7200247002227786,1.3648310278626468,1.0458778692533626,0.84941173497298539,1949.8830203165164,9.7441742925254097E-003,106.01436744352451,193.82807523507324,231.96270167521578,290.38977680185127,94.046310618706599,71.664257368682456,2.2106666666666683,2.0247327474999839,1.9055574069552677,0.12759023182845527
20210308020000,425.93044045609389,5.4170023297987724,1.0437398541076377,0,-53.904657728056982,0,4.8992593228073495,0,0.58623463927981356,1,148.29874158308814,4.0660061521897122,11.020835979814120,1.8272990046509718,1.5358401837571261,1.1656286403446774,0.93711557147271574,1273.0622248301624,1.4924643610829600E-002,105.15774279413515,192.26189216957027,230.08838055454510,288.04334917380686,94.019147016473227,73.007800379429426,1.8783333333333303,1.8834791697991704,1.5758677846386036,0.14620651929620038
20210308023000,427.25413132110538,5.3667914305457991,0.63769532455554134,0,-46.844062105924010,0,2.4626843174208211,0,0.28267025120321904,0,157.09671926235663,3.7468554254926998,11.047805722395264,1.6497873280555946,1.4264986454749717,1.0246416444798010,0.73226050864884429,698.95483930890089,2.7183444382167028E-002,95.703933472611965,174.97731359198843,209.40315454014601,262.14790080199214,94.023661255859381,73.148554687003468,1.7219999999999800,1.8528073847727444,1.4165291392008612,0.13464433173125909
20210308030000,428.19013028492589,5.3679460646317239,0.86198826333514089,0,-64.495114795693667,0,2.8848494826192508,0,-5.4679821785671101E-002,2,158.92901373920762,4.0045916453362560,10.755600006509603,1.8419366306884923,1.4634425480639228,1.1124208260647144,0.85149676268699170,798.15158275862109,2.3805001970090719E-002,101.10811460572202,184.85788027848429,221.22766933193810,276.95079017334655,94.010308152343740,72.873302725412330,1.7756666666666661,1.8790077313122902,1.4832177403768014,0.15080746406208648
20210308033000,428.82030935725186,5.4318529887220492,1.0064310916105415,0,-101.18769085611572,0,-0.56685917915770978,2,0.60243758287211002,1,165.09799119460885,3.6978535706237241,10.740950730140117,1.7870825296157369,1.3874393416670614,1.1254969139098461,0.92060568077079996,642.89001448217516,2.9554044349722586E-002,106.61992516653544,194.93522788546724,233.28768062700487,292.04849322176915,94.002399552300361,72.241962036460805,2.0616666666666674,1.9624683406505659,1.7904983690049789,0.21363407425803693
20210308040000,428.91551752741645,5.5848244008642443,0.52250479871069888,0,-71.738771892033185,0,-2.3377603905330875,1,0.99659050105286273,0,168.25267415453669,3.8468181817842102,9.9802799315313067,1.6298481946910106,1.3067411286847770,0.93263493075259440,0.66386884643293864,340.02520686482853,5.5878210251492151E-002,95.400662134975931,174.42283686335753,208.73958751130732,261.31719362361429,93.990699599175343,72.175292056110607,2.4623333333333335,2.0241978003735448,2.2142492472330559,0.25664964815846469
20210308043000,429.02849750203040,5.7606408973596102,0.65060061147026615,0,-85.210214513727863,0,-6.9119205331977911,1,1.3008605094792820,0,171.55116242435909,3.4699950340135777,9.4204781229773502,1.5738899187319719,1.3626905218756473,1.0075689860502393,0.74119255879988333,398.36277391081978,4.7695219644829236E-002,97.944467053089582,179.07372355863629,214.30551103251949,268.28506939565989,93.974061054309857,73.209168988162517,2.6956666666666820,1.9815999636838411,2.4382761523198724,0.19744715383952358
20210308050000,429.11305827265295,5.8730428080672210,0.86100494120353033,0,-81.819451735257260,0,-1.5483102423656316,1,1.3187823333063076,0,176.38701722793900,3.8885713214439717,10.319786518410110,1.7666042521707930,1.4579239646107307,1.1041307514413445,0.85289987968014314,632.11766715570809,3.0057694931218831E-002,101.84903951796630,186.21252732394754,222.84883586367459,278.98029829646168,93.966279047971781,73.999845245264581,2.8153333333333421,1.9395313185188161,2.5726841310208783,0.17262373352396937
20210308053000,429.27821753843864,5.9739588240179051,0.64751442993392583,0,-66.347959037231035,0,-9.1368049581309112,1,1.1919879588280813,0,176.70450154757202,3.4500354107402988,9.3086442447633200,1.5515146802230484,1.2757628009213580,0.99057028390748536,0.73949137039372215,508.05430269974482,3.7397577186210382E-002,99.104449091499305,181.19454068214543,216.84358746510853,271.46243991015547,93.957728131944450,76.049109946800627,2.6693333333333271,1.7682299113627358,2.4219320678711256,0.15956204988486664
20210308060000,429.18582134904682,6.1121440321857259,0.72867687698056349,0,-76.797428283995913,0,0.85320402039785659,2,1.3693566927813599,0,184.38664072614165,3.6899655880245046,9.5919600701663139,1.5577361582375970,1.2858405298826314,1.0084191738698407,0.78449212484420394,524.00024372743701,3.6259525119387168E-002,102.42663252758638,187.26855155937517,224.11262716112833,280.56241503394290,93.946930185763890,77.965358412086886,2.6393333333333544,1.6232931788997065,2.4117450213962570,0.16676393333315051
20210308063000,429.21302271731935,6.1926598186100508,0.44180443363611299,0,-62.225735326045992,0,-2.6426245750090445,1,1.1289036009611175,0,186.92775998317148,3.5580467089032140,8.7455280155333952,1.3446841325452976,1.1700992303086579,0.89415587170725852,0.61065056476929158,305.00147427158544,6.2294780854343167E-002,92.290824113069235,168.73706112734584,201.93516612268687,252.79886548707682,93.939919308376730,80.181270339702607,2.4283333333333417,1.4382910124534465,2.2013262388441035,0.17206188584540014
20210308070000,429.23236254107485,6.2668183582780479,0.39260132971665762,0,-49.011481330417240,0,-4.5940155640332243,0,0.83414702374373595,0,187.47488006756336,3.2206096013511671,7.6873697546226918,1.2250512265597677,1.0599504524623262,0.76340196147436967,0.57539939640794335,323.97574447821887,5.8646365735189734E-002,99.868333805695030,182.59116556822914,218.51499075077766,273.55483848788418,93.941312704644091,82.527079167218062,2.1909999999999741,1.2467783302969462,1.9770331785414328,0.18931390991248498
20210308073000,429.40859566060465,6.3083365270313863,0.33510084406584584,0,-53.842070935397054,0,-3.8366699022638491,0,0.83720517936193195,0,189.65980565171623,3.0972358978594481,7.2981811631626661,1.0213019683281950,0.91242773394366661,0.69376426320384588,0.53122519016311331,232.10168808456845,8.1860671315226147E-002,101.13658577154931,184.90993465002919,221.28996511980532,277.02877710746918,93.959800635593211,85.094862278434263,1.8573333333333153,1.0384989761184387,1.6403372707086419,0.20221448331552005
20210308080000,429.51659690968836,6.3691236364693555,0.38570952964955924,0,-80.209027713513777,0,-8.5922401509385686,0,1.4123403160956087,0,201.03310174787117,2.9897292062380236,7.0069426334568705,1.0951998455414149,0.86373186328726759,0.68638297665533787,0.56962816727923415,192.11532247752177,9.8898930886801462E-002,107.86358780242520,197.20903982972760,236.00885278461070,295.45507785705661,93.973136268663197,87.529608687493749,1.5993333333333339,0.85295275177261598,1.3907074661254910,0.22762036308525693
20210308083000,429.76539469955094,6.4565398829048029,0.23003453570524071,0,-55.146632552037502,0,-2.2024862495844304,0,1.1994362406752659,0,210.87757796188603,2.6285252863130464,6.8568052780929332,0.98941100416628325,0.81717990361148529,0.60168582940503867,0.43969748403872638,128.52351179254279,0.14783287302846965,97.427656801184341,178.12882958997767,213.17471428132205,266.86944604838465,93.980389263237839,90.316280466982434,1.3536666666666406,0.65077328435277881,1.1715103988647684,0.21750950675235167
20210308090000,432.37368785618668,6.6018202146319842,0.18044351712080134,0,-37.637643850193463,0,-0.90071042539676005,1,2.0738226807887150,0,219.33603508256670,3.3496842525933981,6.9420277619044803,0.97960870924132093,0.80814597305385871,0.60234771714739987,0.38941714971469460,130.82079464792693,0.14523684901268169,88.330185761333439,161.49575103955874,193.26916740400824,241.95006343610856,93.981616306325705,92.535698019102711,1.3256666666666774,0.50061398542082880,1.1321873540758816,0.20085026418931060
20210308093000,428.41750325837597,6.6379348241215617,0.32845000137459229,0,-56.491790406033104,0,-6.0734800412755225,1,7.3393691671994554E-002,2,226.13908790185374,3.3763927303938202,7.0164835916923503,1.0087836664900127,0.85690717405323402,0.63435388117921476,0.52522302686735134,213.86580509281899,8.8840756902459891E-002,107.66254091872855,196.84146200571530,235.56895600995418,294.90437929523688,93.993630443832643,93.992975267071415,1.1859999999999786,0.39885212523880115,1.0055730827439220,0.21718136752094500
20210308100000,430.08317564369543,6.7712584976056380,0.25849735854906136,0,-44.071955654945661,0,0.30820695650647556,2,1.3768250116327696,1,225.67787327893703,3.4248980239315943,6.8675323760932452,0.88115396717887107,0.79730191770023950,0.57963595763298525,0.46590064240501844,191.36275710155493,9.9287867126187090E-002,105.13935102644268,192.22826615247499,230.04813880028664,287.99297127273553,94.004236179136683,96.156510813414371,1.1476666666666802,0.25449559256761634,0.97643991204671465,0.17176600117205237
20210308103000,429.79075486934130,6.8223385794948497,0.22772902666429320,0,-34.439508967801913,0,-0.99754116356930733,1,1.5363037597615792,1,223.30221228988680,3.2936537099575083,6.4085281560093605,0.85035948524774574,0.67120756936396664,0.52781921330865789,0.43718637613696032,202.35776595848884,9.3893110106273908E-002,107.69611564417092,196.90284731193341,235.64241854347128,294.99634566981894,94.014574508463539,97.672332435411207,1.0363333333333458,0.15289536812072244,0.86845721096460693,0.17777384417507341
20210308110000,431.04940441456864,6.8497403646845898,0.20819471261201125,0,-38.140638244170852,0,-0.85984770219671181,1,0.56055658376205353,0,223.86085610435464,3.3291582188382924,6.4247947379783836,0.81635172390096677,0.69907618392185011,0.52264445781821534,0.41785055136726729,159.54745868531944,0.11908682317199616,104.69033847006297,191.40732799420297,229.06568549536624,286.76305631712540,94.025800960503474,99.402605179336561,0.85000000000002274,3.8716966024701378E-002,0.67447706943084995,0.18048866402436284
20210308113000,431.28733392031432,6.8312820514886745,0.15764004930885780,0,-35.913287091576514,0,0.15273884533995133,2,0.51607018419777950,0,225.99479186284486,3.3264296934934934,6.0930049409307427,0.77546043329091208,0.67846167689885939,0.47449028091223822,0.36339110486470383,111.46954424809719,0.17045014517787743,101.15153480147283,184.93726624447797,221.32267405777390,277.06972481642208,94.049004154513895,100.00000000000000,0.61033333333330120,0.0000000000000000,0.44034913550490273,0.18619695090393243
20210308120000,431.37043650023605,6.8011919897878643,0.14727624841441100,0,-35.759940596265750,0,-0.10019213333549815,2,0.60649281801482435,0,227.28902416763003,3.1002405692215134,5.7370973878932379,0.76242890286458853,0.63299956033516580,0.46998910138084665,0.35111701539965579,100.99651877226218,0.18812529610890100,99.162204030551010,181.30013513072501,216.96995705085982,271.62063963595551,94.067857229796374,100.00000000000000,0.47233333333332439,0.0000000000000000,0.32174832746449056,0.18432615468665367
20210308123000,431.56124563744328,6.7154707906973394,0.17154879247027083,0,-33.345351113261195,0,0.83020385803414565,2,0.58434490284628537,0,228.66948022185858,2.7452392793812508,5.4105588634540336,0.74557766520200408,0.62523508518121917,0.47906371247356266,0.37870863883928718,135.92766183636652,0.13978023121498789,103.74912649330814,189.68649231653154,227.00628469675823,284.18493089465699,94.094478276258684,100.00000000000000,0.21333333333330984,0.0000000000000000,3.7137723286946311E-002,0.17869945262617562
20210308130000,431.55793315588028,6.7007571888156985,0.14006446208364418,0,-31.543549165324144,0,0.74848842639633750,2,0.70899677399984218,0,237.18514284443935,2.4585639400194026,4.8003424733170110,0.65100606948675677,0.54252097963965840,0.40592965528298075,0.34202825973965978,105.87624915556718,0.17945478945030177,109.18019569167291,199.61621896182157,238.88963140359829,299.06147084240240,94.124206891043443,100.00000000000000,3.2666666666671063E-002,0.0000000000000000,-0.12776104829242740,0.14738521796094928
20210308133000,431.14669473718345,6.9418012145140544,0.29082080112872655,0,-50.594587574498718,1,-7.7762136263055703,1,1.6964210119830085,0,248.84440196812210,3.4574930852495873,7.4357006568688409,1.0879375301062972,0.77024739420212351,0.56484587997353553,0.49321676221310218,197.98350559952152,9.5967590544805054E-002,112.34175130739366,205.39655095380593,245.80721248061326,307.72146148079270,94.147443371527785,100.00000000000000,0.48700000000002319,0.0000000000000000,0.36789045461028991,0.27860522801943022
20210308140000,430.38826492341173,7.0819113977000248,0.43632855531948750,0,-3.5935977561914267,2,2.1212358265718816,2,0.73822663573960956,1,243.68171693504860,3.7287193249469008,8.0270711581726033,1.2200720347790059,1.0115936524210294,0.70633783830554520,0.60485101916309514,5141.6450212510890,3.6953153944837740E-003,110.60217199866571,202.21604516708680,242.00095936642285,302.95648424825168,94.163207723779792,100.00000000000000,1.1700000000000159,0.0000000000000000,1.0210433201218621,0.14918382433023961
20210308143000,429.75061056891218,7.1114481185476786,0.46333701058025634,0,28.801209472219469,2,4.1380190567325892,2,1.5336819108182482,2,255.04013665140661,2.9301728848288118,7.2688298381967407,1.2190455010700312,0.93443837745981817,0.69576311862119311,0.62375426810020973,-703.80545415990287,-2.6996096560063382E-002,114.73517994823538,209.77250185417785,251.04410807490373,314.27743333220644,94.203028555338534,97.321794694418344,1.6920000000000073,0.18440519322180421,1.5470853763156356,0.19700248456917185
20210308150000,428.82123847108477,7.1195491880453998,0.55114261844258361,0,3.5395750537032322,2,1.7341750733772401,0,1.5337280359668448,0,267.49904672922776,3.0088135207596096,7.9881561639852876,1.3363346909200338,1.0716133025026529,0.79590366603752916,0.68086473912117929,-7450.2865734681536,-2.5502374724299210E-003,110.51345852496202,202.05384864344521,241.80685155319404,302.71348429976024,94.237926009331602,93.630911072311932,2.2540000000000191,0.45651258773561382,2.0874788470798649,0.14039831466991751
20210308153000,427.94847186502921,7.1097600655009492,0.57833367605088859,0,30.691587998289855,0,8.5902353225634691,0,1.5137193062829779,1,271.65476103695579,3.1259670566051461,8.3297687455404912,1.2801489440729998,1.2278611408781344,0.82767365013891891,0.69804347182663207,-926.08691656963094,-2.0516432809977423E-002,109.26311364890294,199.76781943296416,239.07105844825537,299.28859597339675,94.262105086805562,90.036826952472509,2.7883333333333553,0.74179867033639202,2.6055055711534578,0.19388606316699830
20210308160000,427.15855054511297,7.0186948940810820,0.64475795726498397,0,61.888210545646842,0,7.6692523032750683,0,0.54742472170126955,1,276.41604741933719,3.2766229498858324,10.177844099683792,1.5914163098235341,1.3060883732012674,0.88208256472397817,0.73767391092832890,-542.10574850585249,-3.5048512310315187E-002,108.52731257271449,198.42254039397466,237.46110302764572,297.27312283105357,94.285838887321134,85.488314933511703,3.3416666666666401,1.1236483038390419,3.1208015062438790,0.20295096812505667
20210308163000,425.98209669720848,6.8809653057620457,0.61318879220630917,0,160.27521720509594,0,7.2123191009228034,2,-0.86174162639290153,2,268.52303954824657,3.2061792870961097,8.8875479728627322,1.5182838167485013,1.4810240717341667,0.94514405460477968,0.72063943574355782,-195.18555176252843,-9.7343270690016331E-002,100.79312584405371,184.28198036164167,220.53846421836857,276.08798715521147,94.305443558376737,77.938553630786487,4.3766666666666652,1.8373176594254892,4.0421725650363669,0.50682874328284488
20210308170000,424.52821844409283,6.5371673434566437,0.78820833810114788,0,164.07176410109020,0,6.5130160337497118,1,-6.6931001642726182E-002,2,276.60262066904443,4.1547341617872942,10.928167190264519,1.6845380676343076,1.4672451851066712,1.0078389907462391,0.81859969047608805,-279.45879876979797,-6.7988555320639965E-002,106.02279177311192,193.84347759636117,231.98113436785943,290.41285234573826,94.303645349392355,68.601174238700267,5.4706666666666592,2.8223860700746650,5.0199838273790647,0.34429996204927876
20210308173000,423.21365620896103,6.2393862695541005,0.82347373525238476,0,159.84533864570139,0,31.265319697540679,1,2.0394547483807863,1,283.46879790115918,4.6144496229512724,10.689349667983860,1.7863510970341583,1.5184825858504776,0.99530316015396592,0.83774792128175624,-307.42621427997148,-6.1803447843575228E-002,109.08908034479030,199.44963104797077,238.69026821786574,298.81189179116149,94.297588095703119,62.355803751583935,6.1746666666666670,3.5528762765448256,5.6760868767632928,0.34399982432754439
20210308180000,421.17326732140077,5.7897880107172908,0.92212935431839427,0,244.46895417367585,0,27.562234100397596,0,1.2888316694107407,1,289.16980492855566,3.6672173491354236,9.4661412364700226,1.7028417983982975,1.4594557957650607,1.0167674198696861,0.88816540686798551,-239.54306197048490,-7.9317680268865681E-002,112.37577128189942,205.45875031731686,245.88164923279669,307.81464746154001,94.312291532312685,53.528243346651649,7.3093333333333135,4.7419125132486872,6.7459700714821338,0.44761514260497348
20210308183000,419.96257366436799,5.4229751778754274,0.80399839084113134,0,205.42910483704446,0,9.3708160766821500,2,-0.54716950574086476,2,303.18123688785818,4.0412753824582470,10.110328794668746,1.6697056450862859,1.4438415816517851,0.96790837697106835,0.82988321937468756,-232.53043446739167,-8.1709734226916506E-002,110.71362924670902,202.41982456397602,242.24483125851506,303.26178291825966,94.308575400173609,48.767654922946207,7.7139999999999986,5.3742472584707368,7.1284645173814170,0.37227973939446501
20210308190000,418.61232565540666,5.0297481456440485,0.67605671434875858,0,180.20697907477950,0,37.910807530227068,0,1.8045765498512207,0,301.55346209630130,3.8617236062608526,10.734550298264203,1.7518956888451838,1.4233445935259181,0.88052070187012954,0.76170785263046259,-204.93118535664360,-9.2714049191362100E-002,111.50490941555530,203.86653707849311,243.97617664286011,305.42922189054246,94.292448358072917,43.646817574814484,8.2353333333333012,6.1249915593398772,7.5832182117038656,0.40741092537000945
20210308193000,417.98042413916551,4.7318230925845155,0.53692214949974915,0,144.64118431643058,0,2.8877416827419644,2,0.15449501816018479,2,300.35377643741447,3.8044093668269863,9.3251146754028476,1.6951650305266808,1.3104955795186890,0.88459637980182704,0.67928010216313961,-181.06300643177605,-0.10493584732980306,101.36730218079698,185.33175782935859,221.79477973031936,277.66074509635189,94.285833081555268,39.969580933467185,8.6316666666666606,6.7024441173231599,7.9720175854436661,0.34651960918031038
20210308200000,417.62648108173983,4.4179762428036771,0.29336367515553735,0,121.03294728412672,0,21.480807356870468,0,1.1111409080845314,0,283.10283439166551,2.8564701515182067,8.8437495448902173,1.3157291374349385,1.2488914146029191,0.79502015933447390,0.50239576119847651,-87.547040000064939,-0.21702618386624958,86.733956944677971,158.57733567164263,189.77656958229809,237.57774541006185,94.301236712673614,36.319739902423215,9.0353333333333126,7.3066674661882232,8.4214202906291575,0.31053862407169025
20210308203000,417.71818411423692,4.1416908637307390,0.72111429500475188,0,158.56153635492825,0,11.812731595465776,1,0.42294940850463286,2,276.38364622853891,2.9886362966702085,8.4705607327684564,1.6087355475110896,1.4602124214942076,0.87418612438053067,0.78813598659588635,-258.00417676376185,-7.3642218658332426E-002,115.25312218222317,210.71946544711051,252.17738163776778,315.69615735377914,94.310302683593747,33.168340921636791,9.4253333333333558,7.8724840929306357,8.7033644977145741,0.33402811605395277
20210308210000,417.52135304627234,3.7931109048736737,0.84041081155537423,0,181.56437981751236,0,28.748128804978261,0,0.77184093177285762,0,280.13721164382531,4.0924748551941592,9.4605518950982663,1.6060747938076119,1.3881804190203051,0.96763870069662428,0.85051368853199250,-283.19685823037850,-6.7091139777206293E-002,112.93520961602435,206.48158201580256,247.10571754102321,309.34703573021011,94.334310472656242,30.597287352403281,9.3216666666666583,8.1184892495701746,8.5763005337184950,0.31515993358228545
20210308213000,417.22700701370724,3.4608175599745050,0.92923043654917903,0,150.02705977651945,0,58.218752429907511,0,1.3773678719612674,0,290.37168793136209,3.7219915557392413,10.119160241406650,1.7780240519956196,1.3763377493893334,0.94951744676833505,0.89400341487598778,-398.10641720073448,-4.7725932512210072E-002,119.32292278305563,218.16035894175999,261.08223072014732,326.84397171708571,94.364599401041659,28.075440690140482,9.2423333333333062,8.3686405256760548,8.4895769161648786,0.27119552668713010
20210308220000,417.38973806344268,3.4078047127926117,0.46477604121771227,0,115.64232638348760,0,10.196887566195771,1,-5.7297688537957921E-002,2,280.80297253435538,2.2355924109527758,6.5562620379213996,1.0973064328484561,1.2300803266272002,0.76522513140805604,0.63225983305532185,-182.72446765238553,-0.10398169574173034,107.48305303037807,196.51330090108470,235.17623098122692,294.41273416171759,94.388500833642979,27.517959891986671,9.3146666666666533,8.4747021216821903,8.5700834865847355,0.26851964926799476
20210308223000,417.41385467878615,3.0990991847826295,0.46207696949017862,0,66.629216944424073,0,7.0407176753798426,1,0.41609896658519474,1,261.34247418006123,2.4511397961800840,6.5796336586266921,1.2193043932908487,0.92941409037934697,0.68141186497495754,0.63010524675943824,-313.96877380019248,-6.0515572201748531E-002,117.61362168339332,215.03521137795235,257.34222726009455,322.16193119005510,94.421226078776044,25.292162103211204,9.1623333333333221,8.6457326482512951,8.4353504138522908,0.17538441324613460